Tracking 20093 objects as of 14-Dec-2019
HD Live streaming from Space Station
objects crossing your sky now

FENGYUN 1C DEB

Track FENGYUN 1C DEB now!
10-day predictions


NORAD ID: 30420
Int'l Code: 1999-025AEK
Perigee: 533.1 km
Apogee: 763.5 km
Inclination: 98.9 °
Period: 97.5 minutes
Semi major axis: 7019 km
RCS: 0.046 m2 (small)
Launch date: May 10, 1999
Source: People's Republic of China (PRC)
Launch site: Taiyaun Space Center, China (TSC)

Note: This is SATELLITE DEBRIS
aabbcc
Your satellite tracking list
Your tracking list is empty




NASA's NSSDC Master Catalog

Two Line Element Set (TLE):
1 30420U 99025AEK 19347.78427843 +.00000759 +00000-0 +96770-4 0  9995
2 30420 098.9276 102.8770 0164132 195.6576 321.5694 14.76246426689187
Source of the keplerian elements: AFSPC